Flag Weather past 2 weeks in Pokhara, Nepal

Now
45 °F

Fog.


Feels Like: 45 °F
Forecast: 45 / 71 °F
Wind: No wind

Location: Kathmandu Airport

Current Time: Nov 26, 2014 at 7:33:32 AM

Latest Report: Nov 26, 2014 at 6:35 AM


Visibility: 2 mi

Pressure: 30.01 "Hg

Humidity: 93%

Dew point: 43 °F

Location of PokharaLocation

Historic Weather in Pokhara — Graph

°F

Pokhara temperature yesterday

Maximum temperature yesterday: 66 °F (at 12:35 PM)
Minimum temperature yesterday: 48 °F (at 4:35 AM)
Average temperature yesterday: 55 °F

Past Weeks' High & Low Weather Summary

 TemperatureHumidityPressure
High77 °F (Nov 12, 12:35 PM)100% (Nov 11, 6:35 AM)30.27 "Hg (Nov 11, 6:35 AM)
Low45 °F (Nov 26, 5:35 AM)24% (Nov 12, 12:35 PM)29.98 "Hg (Nov 22, 2:35 PM)
Average58 °F80%30.10 "Hg
* Reported Nov 11 6:35 AM — Nov 26 6:35 AM, Pokhara, Weather by CustomWeather, © 2014

Note: Actual official high and low records may vary slightly from our data, if they occured in-between our weather recording intervals... More about our weather records

Advertising

Pokhara weather history for previous 24 hours

 ConditionsComfort  
Time TempWeatherWind HumidityBarometerVisibility
6:35 AM
Nov 26
45 °FFog.No wind93%30.01 "Hg2 mi
5:35 AM45 °FFog.No wind100%29.98 "Hg3 mi
4:35 AM46 °FFog.No wind93%29.98 "Hg3 mi
3:35 AM46 °FFog.No wind93%29.98 "Hg3 mi
2:35 AM46 °FPassing clouds.No wind93%29.98 "Hg4 mi
1:35 AM48 °FPassing clouds.No wind94%30.01 "Hg4 mi
12:35 AM48 °FPassing clouds.No wind94%30.01 "Hg4 mi
11:35 PM
Nov 25
48 °FPassing clouds.No wind94%30.04 "Hg4 mi
10:35 PM50 °FPassing clouds.No wind88%30.04 "Hg4 mi
9:35 PM52 °FPassing clouds.No wind88%30.07 "Hg4 mi
8:35 PM52 °FPassing clouds.No wind88%30.04 "Hg4 mi
7:35 PM55 °FPassing clouds.3 mph77%30.04 "Hg4 mi
6:35 PM57 °FPassing clouds.No wind67%30.04 "Hg4 mi
5:35 PM59 °FPassing clouds.No wind59%30.01 "Hg4 mi
4:35 PM61 °FPassing clouds.5 mph59%30.01 "Hg4 mi
3:35 PM63 °FScattered clouds.9 mph56%30.01 "Hg4 mi
2:35 PM64 °FScattered clouds.5 mph52%30.04 "Hg4 mi
12:35 PM66 °FScattered clouds.3 mph49%30.09 "Hg4 mi
11:35 AM64 °FScattered clouds.5 mph56%30.12 "Hg3 mi
10:35 AM63 °FHaze.No wind64%30.18 "Hg2 mi
9:35 AM57 °FFog.No wind77%30.18 "Hg2 mi
8:35 AM54 °FFog.No wind88%30.18 "Hg2 mi
7:35 AM50 °FFog.3 mph94%30.15 "Hg1 mi
Weather by CustomWeather, © 2014

See weather overviewHow to use our weather pages